Regional Weather Roundup
Issued by NWS State College, PA

Home | Current Version | Previous Version | Graphics & Text | Print | Product List | Glossary Off
Versions: 1 2 3 4 5 6 7 8 9 10 11 12 13 14 15 16 17 18 19 20 21 22 23 24 25 26 27 28 29 30 31 32 33 34 35 36 37 38 39 40 41 42 43 44 45 46 47 48 49 50

534
ASUS41 KCTP 190703
RWRCTP

REGIONAL WEATHER ROUNDUP
NATIONAL WEATHER SERVICE STATE COLLEGE PA
200 AM EST THU JAN 19 2017

Note: "fair" indicates few or no clouds below 12,000 feet with no
significant weather and/or obstructions to visibility.

* = STATION THAT DOES NOT REPORT PRECIPITATION /E.G. RAIN...SNOW...ETC/
    THUNDER OR FOG.

PAZ002>004-007>009-013>016-020>023-029>032-190800-
WESTERN PENNSYLVANIA

CITY           SKY/WX    TMP DP  RH WIND       PRES   REMARKS
ERIE           CLOUDY    36  34  92 W9        30.07R FOG
MEADVILLE      CLOUDY    35  33  92 SW9       30.05R
FRANKLIN*        N/A     36  32  87 W7        30.06S
NEW CASTLE     CLOUDY    37  36  96 SW9       30.09S
BEAVER COUNTY  NOT AVBL
BUTLER*        CLOUDY    37  34  87 W8        30.10S
PITTSBURGH INT CLOUDY    37  36  96 W7        30.09R
PITTSBURGH     CLOUDY    37  33  85 W8        30.08S
INDIANA*       CLOUDY    37  36  93 W7G15     30.09S
LATROBE        CLOUDY    37  37 100 SW6       30.10S
WASHINGTON CO* CLOUDY    37  34  87 SW6       30.10S
$$

PAZ004>006-010>012-017>019-024>028-033>037-041-042-045-046-049>053-190800-
CENTRAL PENNSYLVANIA

CITY           SKY/WX    TMP DP  RH WIND       PRES   REMARKS
BRADFORD       CLOUDY    34  33  96 W12G17    30.01R
DUBOIS         CLOUDY    35  32  88 W10       30.03R
CLEARFIELD     CLOUDY    37  35  92 W7        30.05R
JOHNSTOWN      CLOUDY    34  33  96 W12       30.01F
ALTOONA        CLOUDY    39  34  82 W7        30.05S
STATE COLLEGE  CLOUDY    38  33  81 W10       30.05R
WILLIAMSPORT   CLOUDY    40  35  83 W8        30.04R
SELINSGROVE    CLOUDY    38  37  97 CALM      30.06R
FT INDIANTOWN  CLOUDY    42  39  91 W9        30.04R
CAPITAL CITY   CLOUDY    44  34  67 VRB7      30.06R
HARRISBURG     CLOUDY    42  36  79 NW7       30.05S
YORK           CLOUDY    42  37  82 W5        30.06R
$$

PAZ038>040-043-044-047-048-054-055-060>062-067>071-190800-
EASTERN PENNSYLVANIA

CITY           SKY/WX    TMP DP  RH WIND       PRES   REMARKS
SCRANTON       CLOUDY    38  38 100 SW3       30.01R
MOUNT POCONO   CLOUDY    34  33  96 W8        29.97R
ALLENTOWN      CLOUDY    42  36  79 W5        30.02F
QUAKERTOWN*    CLOUDY    41  37  87 CALM      30.03S
READING        CLOUDY    42  35  76 W5        30.03S
LANCASTER      CLOUDY    43  38  82 W7        30.05R
COATESVILLE    CLOUDY    43  37  81 NW6       30.04S
POTTSTOWN      CLOUDY    42  36  79 CALM      30.05R
BLUE BELL      CLOUDY    41  37  87 CALM      30.03R
DOYLESTOWN     CLOUDY    43  39  86 NW3       30.03R
WILLOW GROVE   NOT AVBL
NORTH PHILA    CLOUDY    44  39  82 W5        30.05S
PHILADELPHIA   CLOUDY    45  38  76 NW3       30.05S
$$




USA.gov is the U.S. government's official web portal to all federal, state and local government web resources and services.